TUBIN
1 48900U 21059X   25230.81133516  .00059485  00000-0  56723-3 0  9995
2 48900  97.6772  46.0750 0002298 328.6514  31.4608 15.66602996231012
LEDSAT
1 49069U 21073D   25230.17229832  .00095109  00000-0  73418-3 0  9997
2 49069  97.3832 315.0998 0008679 183.4047 176.7158 15.71597759222326
CUTE
1 49263U 21088D   25230.47727339  .00012788  00000-0  23039-3 0  9993
2 49263  97.4475 308.8922 0005829 352.3640   7.7521 15.49917833215247
TeikyoSat 4
1 49396U 21102B   25230.83185048  .00001774  00000-0  11945-3 0  9998
2 49396  97.4064 266.7187 0010899 249.7127 110.2930 15.07898737207133
Z-Sat
1 49399U 21102E   25230.84416671  .00003718  00000-0  20243-3 0  9992
2 49399  97.3760 270.2707 0016978 215.6108 144.3993 15.14917321207610
KOSEN 1
1 49402U 21102H   25230.81562575  .00005875  00000-0  26643-3 0  9995
2 49402  97.3663 274.2011 0015564 186.9131 173.1893 15.21100418207961
HO-113
1 50466U 21131B   25230.82953529  .00000413  00000-0  14256-3 0  9993
2 50466  98.5095 319.8388 0002984 289.5885  70.4981 14.40883746191563
SNUGLITE 2
1 52899U 22065F   25230.37475464  .00001022  00000-0  20703-3 0  9990
2 52899  98.1779  11.7088 0006412 251.3035 108.7471 14.63354448166691
UmKA 1 (RS40S)
1 57172U 23091G   25230.85091593  .00005184  00000-0  27227-3 0  9990
2 57172  97.5531 285.8766 0015767  92.4304 267.8734 15.16041737118129
CubeBel-2 (EU11S)
1 57175U 23091K   25230.88500286  .00008924  00000-0  41106-3 0  9997
2 57175  97.5531 287.5056 0013444  98.4079 261.8681 15.20448888118238
ENSO
1 58470U 23185J   25230.83310210  .00076946  00000-0  80935-3 0  9993
2 58470  97.3675 308.5705 0006967 181.6015 178.5223 15.64036572 95989
EIRSAT-1
1 58472U 23185L   25230.77734015  .00381937  57618-4  11586-2 0  9996
2 58472  97.3575 312.2158 0007629 225.5406 134.5245 15.92020173 96227
SONATE-2
1 59112U 24043Q   25230.36326080  .00014477  00000-0  39099-3 0  9997
2 59112  97.5207   3.0740 0010054 220.6093 139.4403 15.37815296 81051
MO-122
1 60209U 24125G   25230.55348298  .00015009  00000-0  39736-3 0  9993
2 60209  97.2731  81.4698 0016318 242.6123 117.3463 15.38329406 62704
GRBBeta
1 60237U 24128C   25230.33071637  .00003978  00000-0  29878-3 0  9991
2 60237  61.9901 196.2633 0056115  72.4310 288.2901 15.03138491 60686
Curium One
1 60242U 24128H   25230.31060587  .00007085  00000-0  48122-3 0  9993
2 60242  61.9797 193.5398 0056102  68.9489 291.7590 15.05984569 60732
ROBUSTA-3A
1 60243U 24128J   25230.33559931  .00006280  00000-0  43482-3 0  9992
2 60243  61.9867 194.5200 0055419  66.5333 294.1571 15.05459250 60725
CatSat
1 60246U 24125J   25230.55866594  .00014145  00000-0  44862-3 0  9994
2 60246  97.2539  79.8641 0040544 202.4461 157.5009 15.31982481 60696
HYPERVIEW-1G (RS66S)
1 61772U 24199AP  25230.87086732  .00020374  00000-0  54354-3 0  9991
2 61772  97.3434  99.6702 0010834 304.7711  55.2514 15.38107588 87752
AO-123
1 61781U 24199AY  25230.81301728  .00006057  00000-0  21590-3 0  9998
2 61781  97.3454  97.6716 0014088 313.4332  46.5735 15.29189838 87619
ZIMSAT 2
1 61783U 24199BA  25230.89950706  .00039232  00000-0  81316-3 0  9997
2 61783  97.3400 100.9475 0009411 297.2562  62.7728 15.45592082 90994
HADES-R (SO-124)
1 62690U 25009CK  25230.20486960  .00032087  00000-0  98288-3 0  9994
2 62690  97.4051 310.9397 0003635 190.9764 169.1400 15.33735121 32801
HYDRA-T
1 62692U 25009CM  25230.17613745  .00033714  00000-0  10198-2 0  9996
2 62692  97.4067 310.9784 0003546 185.8659 174.2543 15.34124497 32801
JINJUSat 1B
1 63210U 25052A   25230.44945059  .00009100  00000-0  40125-3 0  9993
2 63210  97.4319 123.7168 0006304  83.7809 276.4145 15.21997618 23871
NUSHSAT 1
1 63211U 25052B   25230.62784160  .00009757  00000-0  42509-3 0  9994
2 63211  97.4310 123.9162 0006450  86.9085 273.2889 15.22386481 23907
TEVEL2-4
1 63213U 25052D   25230.45922338  .00009687  00000-0  42674-3 0  9993
2 63213  97.4227 123.5154 0005549  98.9763 261.2101 15.22016033 23870
TEVEL2-5
1 63214U 25052E   25230.13220514  .00009185  00000-0  40526-3 0  9993
2 63214  97.4223 123.1890 0005500  99.4610 260.7248 15.21978099 23823
TEVEL2-6
1 63215U 25052F   25230.26766543  .00009016  00000-0  39827-3 0  9990
2 63215  97.4227 123.3161 0005546  99.9516 260.2346 15.21941559 23848
TEVEL2-1
1 63217U 25052H   25230.42063135  .00008652  00000-0  38498-3 0  9995
2 63217  97.4199 123.3667 0005687 108.0692 252.1164 15.21705623 23862
TEVEL2-3
1 63218U 25052J   25230.68384931  .00008681  00000-0  38615-3 0  9997
2 63218  97.4205 123.6275 0005725 107.9309 252.2552 15.21715889 23907
TEVEL2-2
1 63219U 25052K   25230.68430069  .00008735  00000-0  38863-3 0  9997
2 63219  97.4202 123.6265 0005713 108.1224 252.0635 15.21706037 23905
TEVEL2-9
1 63237U 25052AD  25230.67477753  .00008886  00000-0  40981-3 0  9998
2 63237  97.4267 123.4655 0009768 122.8384 237.3793 15.20437094 23882
TEVEL2-7
1 63238U 25052AE  25230.41699135  .00008462  00000-0  39137-3 0  9992
2 63238  97.4269 123.2024 0009898 123.5960 236.6222 15.20354612 23844
TEVEL2-8
1 63239U 25052AF  25230.68371217  .00008663  00000-0  40091-3 0  9994
2 63239  97.4265 123.4552 0009859 123.0534 237.1650 15.20328352 23885
HYDRA-W
1 63490U 25052BL  25230.17435615  .00021381  00000-0  81758-3 0  9997
2 63490  97.4213 123.7198 0013642 121.7170 238.5401 15.26527042 23862
HADES-ICM (SO-125)
1 63492U 25052BN  25230.21313727  .00019601  00000-0  76442-3 0  9999
2 63492  97.4223 123.6801 0013759 125.1098 235.1433 15.25888802 23862
